Regional Weather Roundup
Issued by NWS

Home | Current Version | Previous Version | Text Only | Print | Product List | Glossary On
Versions: 1 2 3 4 5 6 7 8 9 10 11 12 13 14 15 16 17 18 19 20 21 22 23 24 25 26 27 28 29 30 31 32 33 34 35 36 37 38 39 40 41 42 43 44 45 46 47 48 49 50
000
ASUS43 KBIS 272002
RWRND

NORTH DAKOTA REGIONAL WEATHER ROUNDUP
NATIONAL WEATHER SERVICE BISMARCK ND
300 PM CDT THU AUG 27 2015

NOTE: "FAIR" INDICATES FEW OR NO CLOUDS BELOW 12,000 FEET WITH NO
SIGNIFICANT WEATHER AND/OR OBSTRUCTIONS TO VISIBILITY.


NDZ001>003-009>011-017-272100-
NORTHWEST NORTH DAKOTA

CITY           SKY/WX    TMP DP  RH WIND       PRES   REMARKS
WILLISTON      PTSUNNY   82  63  52 VRB5      29.93F
MINOT          PTSUNNY   79  62  56 SE7       29.93F
MINOT AFB      PTSUNNY   82  61  47 SE6       29.92S
$$

NDZ018>021-031>035-040>046-272100-
SOUTHWEST NORTH DAKOTA

CITY           SKY/WX    TMP DP  RH WIND       PRES   REMARKS
BISMARCK       PTSUNNY   79  67  66 S3        29.95F
DICKINSON      MOSUNNY   87  56  34 S9        29.93F
GARRISON         N/A     80  64  58 S6        29.94F
HETTINGER ARPT MOSUNNY   84  58  40 S9        29.97F
$$

NDZ004>008-012>016-024-026-027-054-272100-
NORTHEAST NORTH DAKOTA

CITY           SKY/WX    TMP DP  RH WIND       PRES   REMARKS
GRAND FORKS    PTSUNNY   77  60  55 VRB3      29.93F
GRND FRKS AFB  MOSUNNY   77  61  56 S8        29.94F
DEVILS LAKE    MOSUNNY   75  61  60 SE9       29.93F
$$

NDZ022-023-025-028>030-036>039-047>053-272100-
SOUTHEAST NORTH DAKOTA

CITY           SKY/WX    TMP DP  RH WIND       PRES   REMARKS
FARGO          PTSUNNY   78  63  59 S6        29.94F
JAMESTOWN      CLOUDY    75  66  73 S5        29.95F
$$




USA.gov is the U.S. government's official web portal to all federal, state and local government web resources and services.